Flag for U.S.A. Weather past 2 weeks in Downey, California, U.S.A.

Now
67 °F

Overcast.


Feels Like: 67 °F
Forecast: 63 / 77 °F
Wind: 6 mph from South

Location: Long Beach Airport

Current Time: Jul 7, 2015 at 2:56:24 AM

Latest Report: Jul 7, 2015 at 2:00 AM


Visibility: 10 mi

Pressure: 29.99 "Hg

Humidity: 76%

Dew point: 59 °F

Location of DowneyLocation

Historic Weather in Downey — Graph

°F

Downey temperature yesterday

Maximum temperature yesterday: 75 °F (at 1:53 PM)
Minimum temperature yesterday: 67 °F (at 11:53 PM)
Average temperature yesterday: 70 °F

Past Weeks' High & Low Weather Summary

 TemperatureHumidityPressure
High88 °F (Jun 28, 12:53 PM)87% (Jun 26, 2:04 AM)30.06 "Hg (Jun 26, 2:04 AM)
Low64 °F (Jun 25, 5:53 AM)36% (Jun 30, 7:53 PM)29.79 "Hg (Jun 30, 6:53 PM)
Average72 °F66%29.92 "Hg
* Reported Jun 22 2:53 AM — Jul 7 2:00 AM, Downey, Weather by CustomWeather, © 2015

Note: Actual official high and low records may vary slightly from our data, if they occured in-between our weather recording intervals... More about our weather records

Advertising

Downey weather history for previous 24 hours

 ConditionsComfort  
Time TempWeatherWind HumidityBarometerVisibility
2:00 AM
Tue, Jul 7
67 °FOvercast.6 mph76%29.99 "Hg10 mi
12:53 AM68 °FOvercast.3 mph76%29.99 "Hg10 mi
11:53 PM
Mon, Jul 6
67 °FOvercast.6 mph79%30.00 "Hg10 mi
10:53 PM68 °FOvercast.5 mph76%30.00 "Hg10 mi
9:53 PM68 °FOvercast.6 mph76%29.99 "Hg10 mi
8:53 PM68 °FOvercast.8 mph76%29.98 "Hg10 mi
7:53 PM69 °FScattered clouds.10 mph73%29.97 "Hg10 mi
6:53 PM72 °FSunny.8 mph66%29.96 "Hg10 mi
5:53 PM74 °FSunny.5 mph62%29.95 "Hg10 mi
4:53 PM74 °FSunny.8 mph62%29.96 "Hg10 mi
3:53 PM75 °FPassing clouds.9 mph60%29.98 "Hg10 mi
2:53 PM74 °FScattered clouds.8 mph62%30.00 "Hg10 mi
1:53 PM75 °FScattered clouds.9 mph60%30.01 "Hg10 mi
12:53 PM72 °FOvercast.6 mph66%30.03 "Hg10 mi
11:53 AM71 °FOvercast.5 mph68%30.05 "Hg10 mi
10:53 AM69 °FOvercast.No wind73%30.05 "Hg10 mi
9:53 AM68 °FOvercast.5 mph76%30.06 "Hg10 mi
8:53 AM68 °FOvercast.6 mph76%30.05 "Hg10 mi
7:53 AM68 °FOvercast.5 mph76%30.04 "Hg10 mi
6:53 AM68 °FOvercast.5 mph76%30.03 "Hg10 mi
5:53 AM68 °FOvercast.6 mph76%30.02 "Hg10 mi
4:53 AM68 °FOvercast.5 mph76%30.01 "Hg10 mi
3:53 AM68 °FOvercast.5 mph73%30.01 "Hg10 mi
2:53 AM68 °FOvercast.6 mph73%30.00 "Hg10 mi
Weather by CustomWeather, © 2015

See weather overviewHow to use our weather pages